Change the Weather History Date:

Monday, November 4, 2013

  Actual Average Record
Temperature  
Mean Temperature 56 °F 60 °F  
Max Temperature 64 °F 71 °F 89 °F (1931)
Min Temperature 47 °F 48 °F 29 °F (1935)
Degree Days  
Heating Degree Days 9    
Month to date heating degree days 23  
Since 1 July heating degree days 67  
Cooling Degree Days 0    
Month to date cooling degree days 0  
Year to date cooling degree days 2557  
Growing Degree Days 5 (Base 50)    
Moisture  
Dew Point 31 °F    
Average Humidity 44    
Maximum Humidity 61    
Minimum Humidity 27    
Precipitation  
Precipitation 0.00 in 0.02 in 0.99 in (1987)
Month to date precipitation 0.00 0.07  
Year to date precipitation 2.39 4.88  
Since 1 July precipitation 0.03 0.49  
Snow  
Snow 0.00 in - - ()
Month to date snowfall 0.0  
Since 1 July snowfall 0.0  
Since 1 September snowfall 0.0  
Snow Depth 0.00 in    
Sea Level Pressure  
Sea Level Pressure 29.95 in    
Wind  
Wind Speed 3 mph (ESE)    
Max Wind Speed 8 mph    
Max Gust Speed 13 mph    
Visibility 10 miles    
Events      
T = Trace of Precipitation, MM = Missing Value Source: NWS Daily Summary

Daily Weather History Graph

Daily Weather History Graph

Search for Another Location

Airport or City:

Trip Planner

Search our weather history database for the weather conditions in past years. The results will help you decide how hot, cold, wet, or windy it might be!

Date:

Astronomy

Nov. 04, 2013 Rise Set
Actual Time 6:21 AM PST 4:58 PM PST
Civil Twilight 5:54 AM PST 5:24 PM PST
Nautical Twilight 5:24 AM PST 5:54 PM PST
Astronomical Twilight 4:54 AM PST 6:24 PM PST
Moon 7:34 AM PST (11/4) 6:09 PM PST (11/4)
Length of Visible Light 11h 29m
Length of Day
10h 36m
New Moon, 2% of the Moon is Illuminated
Nov 4
New Moon
Nov 9
First Quarter
Nov 17
Full
Nov 25
Last Quarter
Dec 2
New

Hourly Weather History & Observations

Time (PST) Temp. Dew Point Humidity Pressure Visibility Wind Dir Wind Speed Gust Speed Precip Events Conditions
12:54 AM 50.0 °F 36.0 °F 59% 29.88 in 10.0 mi NW 5.8 mph - N/A   Clear
1:54 AM 50.0 °F 32.0 °F 50% 29.90 in 10.0 mi NW 4.6 mph - N/A   Clear
2:54 AM 50.0 °F 33.1 °F 52% 29.89 in 10.0 mi Calm Calm - N/A   Clear
3:54 AM 50.0 °F 36.0 °F 59% 29.90 in 10.0 mi Calm Calm - N/A   Clear
4:54 AM 48.9 °F 35.1 °F 59% 29.89 in 10.0 mi SE 5.8 mph - N/A   Clear
5:54 AM 48.0 °F 33.1 °F 56% 29.90 in 10.0 mi SSE 4.6 mph - N/A   Clear
6:54 AM 48.0 °F 32.0 °F 54% 29.93 in 10.0 mi ESE 3.5 mph - N/A   Clear
7:54 AM 51.1 °F 30.9 °F 46% 29.96 in 10.0 mi SE 4.6 mph - N/A   Clear
8:54 AM 55.0 °F 28.0 °F 35% 29.99 in 10.0 mi Calm Calm - N/A   Clear
9:54 AM 55.0 °F 28.9 °F 37% 29.97 in 10.0 mi Calm Calm - N/A   Clear
10:54 AM 57.9 °F 28.9 °F 33% 29.96 in 10.0 mi Variable 4.6 mph - N/A   Clear
11:54 AM 60.1 °F 28.9 °F 31% 29.94 in 10.0 mi Variable 5.8 mph - N/A   Clear
12:54 PM 61.0 °F 28.9 °F 30% 29.92 in 10.0 mi Variable 3.5 mph - N/A   Clear
1:54 PM 61.0 °F 28.0 °F 29% 29.91 in 10.0 mi SSW 4.6 mph - N/A   Clear
2:54 PM 63.0 °F 28.0 °F 27% 29.93 in 10.0 mi NNW 4.6 mph - N/A   Clear
3:54 PM 62.1 °F 28.0 °F 28% 29.93 in 10.0 mi Calm Calm - N/A   Clear
4:54 PM 61.0 °F 28.9 °F 30% 29.94 in 10.0 mi West 3.5 mph - N/A   Clear
5:54 PM 57.0 °F 30.0 °F 36% 29.96 in 6.0 mi Calm Calm - N/A   Haze
6:54 PM 53.1 °F 27.0 °F 37% 29.99 in 10.0 mi NE 3.5 mph - N/A   Clear
7:54 PM 52.0 °F 27.0 °F 38% 30.01 in 10.0 mi ENE 4.6 mph - N/A   Clear
8:54 PM 51.1 °F 30.9 °F 46% 30.02 in 10.0 mi ESE 3.5 mph - N/A   Clear
9:54 PM 52.0 °F 30.9 °F 45% 30.04 in 10.0 mi ESE 3.5 mph - N/A   Clear
10:54 PM 52.0 °F 30.0 °F 43% 30.05 in 10.0 mi East 4.6 mph - N/A   Clear
11:54 PM 48.0 °F 30.0 °F 50% 30.06 in 10.0 mi Calm Calm - N/A   Clear